[[{"header":{"parameterUnit":"m.s-1","parameterCategory":1,"la1":30.2991,"la2":30.254,"lo1":-89.0895,"lo2":-89.0444,"dy":0.0017,"dx":0.0017,"nx":28,"ny":28,"refTime":"2025-08-04T09:00:00:Z","depth":0,"parameterNumber":2,"parameterNumberName":"U-component_of_WINDS"},"data":[0,0,0,0,0,0,0,0,0,0,0,0,0,0,0,0,0,0,0,0,0,0,0,0,0,0,0,0,0,0,0,0,0,0,0,0,0,0,0,0,0,0,0,0,0,0,0,0,0,0,0,0,0,0,0,0,0,0,-2.1712,-2.1712,0,-2.1631,-2.163,-2.1629,-2.149,-2.1487,-2.1485,-2.1482,-2.1403,-2.1404,-2.1404,0,0,0,0,0,0,0,0,0,0,0,0,0,-2.1752,-2.1752,-2.1713,-2.1712,-2.171,-2.1631,-2.163,-2.1629,-2.1491,-2.1487,-2.1484,-2.1481,-2.1403,-2.1404,-2.1404,0,0,0,0,0,0,0,0,0,0,0,0,0,-2.1709,-2.1752,-2.1713,-2.1632,-2.1624,-2.1631,-2.163,-2.1628,-2.1491,-2.1487,-2.1483,-2.148,-2.1403,-2.1404,-2.1404,-2.1485,0,0,-2.1406,-2.1406,0,0,0,0,0,0,0,0,-2.1712,-2.1708,-2.1645,-2.1637,-2.1628,-2.1566,-2.1615,-2.1581,-2.1492,-2.1542,-2.1482,-2.1478,-2.1461,-2.1457,-2.145,-2.1482,-2.1478,-2.1406,-2.1406,-2.1406,-2.1406,0,0,0,0,0,0,0,-2.1715,-2.1711,-2.168,-2.1644,-2.1634,-2.1601,-2.159,-2.1608,-2.1525,-2.1537,-2.1527,-2.1519,-2.1456,-2.145,-2.1447,-2.1477,-2.1406,-2.1406,-2.1406,-2.1407,-2.157,-2.1574,0,0,0,0,0,0,-2.1729,-2.1714,-2.1683,-2.1678,-2.1661,-2.1603,-2.1591,-2.159,-2.1524,-2.151,-2.1522,-2.1513,-2.1451,-2.1447,-2.1444,-2.1534,-2.1406,-2.1407,-2.1407,-2.1566,-2.1571,-2.1575,0,0,0,0,0,0,-2.1731,-2.1728,-2.1686,-2.1693,-2.1685,-2.1607,-2.1607,-2.1591,-2.1584,-2.1513,-2.1497,-2.1531,-2.1448,-2.1443,-2.1475,-2.1529,-2.1407,-2.1407,-2.1561,-2.1568,-2.1573,-2.1715,0,0,0,0,0,0,-2.1732,-2.1729,-2.1759,-2.1695,-2.1685,-2.1719,-2.161,-2.1592,-2.1585,-2.1572,-2.1517,-2.1504,-2.1444,-2.1476,-2.1476,-2.1528,-2.1408,-2.1556,-2.1564,-2.1571,-2.1705,-2.1725,-2.1742,0,0,0,0,0,-2.1734,-2.1803,-2.1761,-2.1758,-2.172,-2.1722,-2.1717,-2.1645,-2.159,-2.1619,-2.1573,-2.1506,-2.1523,-2.148,-2.1479,-2.1532,-2.1553,-2.1562,-2.1571,-2.1697,-2.1721,-2.1742,0,0,0,0,0,0,-2.1877,-2.1793,-2.1745,-2.1795,-2.1767,-2.1699,-2.1733,-2.1674,-2.1661,-2.165,-2.1563,-2.1551,-2.1595,-2.1566,-2.152,-2.1606,-2.1527,-2.1537,-2.1624,-2.1646,-2.1664,-2.167,-2.1408,0,0,0,0,0,-2.1914,-2.1921,-2.1848,-2.1899,-2.1887,-2.1813,-2.1811,-2.1758,-2.1726,-2.1714,-2.1669,-2.1642,-2.164,-2.1641,-2.1637,-2.17,-2.1686,-2.1736,-2.1755,-2.177,-2.178,-2.181,-2.1832,-2.1605,-2.1605,-2.1605,0,0,-2.1991,-2.1946,-2.1957,-2.1927,-2.1898,-2.1909,-2.1804,-2.182,-2.1826,-2.1716,-2.1743,-2.171,-2.1673,-2.1722,-2.1741,-2.1699,-2.1839,-2.1782,-2.1795,-2.1796,-2.1822,-2.1844,-2.1863,-2.1612,-2.161,-2.1609,0,0,-2.2137,-2.2104,-2.2142,-2.2115,-2.2073,-2.2023,-2.2032,-2.1973,-2.1946,-2.1971,-2.1889,-2.1896,-2.1896,-2.1873,-2.1861,-2.1997,-2.1935,-2.1998,-2.2095,-2.2126,-2.2144,-2.2159,-2.2207,-2.2226,-2.2007,-2.2008,-2.2008,0,-2.2239,-2.2249,-2.217,-2.219,-2.2179,-2.2078,-2.2117,-2.2095,-2.2054,-2.205,-2.2003,-2.2,-2.1968,-2.2009,-2.2042,-2.2036,-2.2044,-2.2004,-2.2147,-2.2162,-2.2175,-2.222,-2.2239,-2.2016,-2.2015,-2.2014,-2.2013,0,-2.2376,-2.2385,-2.2422,-2.2382,-2.2376,-2.2406,-2.2331,-2.2334,-2.2282,-2.2237,-2.2265,-2.2222,-2.2207,-2.2212,-2.2163,-2.2246,-2.2222,-2.2163,-2.2082,-2.2206,-2.2247,-2.2263,-2.2027,-2.2024,-2.2022,-2.202,0,0,-2.2611,-2.2526,-2.2541,-2.2521,-2.2466,-2.2472,-2.2497,-2.248,-2.2484,-2.2459,-2.2478,-2.248,-2.2425,-2.2412,-2.2358,-2.2385,-2.2495,-2.2322,-2.232,-2.2356,-2.2584,-2.2628,-2.265,-2.2453,-2.2456,-2.2458,-2.2587,0,-2.2745,-2.2781,-2.271,-2.2764,-2.2771,-2.2674,-2.2696,-2.2665,-2.2624,-2.2625,-2.258,-2.2582,-2.2509,-2.25,-2.2523,-2.2477,-2.2539,-2.2466,-2.247,-2.2471,-2.2482,-2.2671,-2.2718,-2.2842,-2.2602,-2.2605,-2.2607,0,-2.2906,-2.2887,-2.2942,-2.2882,-2.2883,-2.2903,-2.2881,-2.2883,-2.2846,-2.2814,-2.2799,-2.2735,-2.2756,-2.2678,-2.2705,-2.2657,-2.2655,-2.2632,-2.2635,-2.2633,-2.2547,-2.2674,-2.2879,-2.2898,-2.2631,-2.2629,-2.2627,0,-2.3071,-2.306,-2.309,-2.3076,-2.3008,-2.3025,-2.2998,-2.2957,-2.2951,-2.2932,-2.2927,-2.2912,-2.2904,-2.2894,-2.2828,-2.2777,-2.2864,-2.278,-2.2838,-2.284,-2.2861,-2.286,-2.3069,-2.286,-2.286,-2.2859,-2.2859,0,-2.3228,-2.3265,-2.3163,-2.3182,-2.322,-2.3138,-2.3179,-2.3142,-2.3106,-2.3117,-2.3033,-2.3045,-2.2957,-2.296,-2.2908,-2.2939,-2.2936,-2.2911,-2.2897,-2.2918,-2.2922,-2.2915,-2.2905,-2.2864,-2.2863,-2.2862,-2.2861,0,-2.3419,-2.3352,-2.3379,-2.3311,-2.3295,-2.3327,-2.3269,-2.3285,-2.3237,-2.3252,-2.325,-2.3177,-2.3176,-2.3108,-2.3093,-2.3059,-2.3111,-2.3081,-2.3123,-2.3113,-2.3175,-2.317,-2.3387,-2.3411,-2.3188,-2.319,-2.3192,0,-2.3524,-2.355,-2.3484,-2.3485,-2.3461,-2.3463,-2.3455,-2.3376,-2.3372,-2.3331,-2.3351,-2.3342,-2.3331,-2.3333,-2.3279,-2.3267,-2.3236,-2.3313,-2.3234,-2.3255,-2.3237,-2.3236,-2.3238,-2.333,-2.3333,-2.3335,-2.3337,0,-2.3716,-2.3681,-2.3673,-2.3654,-2.3647,-2.3629,-2.3605,-2.361,-2.3522,-2.3522,-2.3519,-2.351,-2.3493,-2.3486,-2.3464,-2.3436,-2.3373,-2.3362,-2.3375,-2.3397,-2.342,-2.3408,-2.3168,-2.3358,-2.3356,-2.3354,-2.3353,-2.3352,-2.3866,-2.3885,-2.3841,-2.3835,-2.3808,-2.3787,-2.3798,-2.3751,-2.3746,-2.3725,-2.3679,-2.3683,-2.3645,-2.3608,-2.3586,-2.3588,-2.3549,-2.3568,-2.3573,-2.3578,-2.359,-2.342,-2.3584,-2.3583,-2.3583,-2.3582,-2.3582,0,-2.4054,-2.4021,-2.4016,-2.3984,-2.3979,-2.3918,-2.3888,-2.3889,-2.3892,-2.3861,-2.3851,-2.3847,-2.3839,-2.3784,-2.377,-2.3782,-2.3753,-2.3781,-2.3779,-2.3774,-2.3626,-2.3616,-2.3805,-2.3805,-2.3805,-2.3805,-2.3805,-2.3805,-2.4151,-2.4178,-2.4138,-2.4151,-2.4117,-2.4119,-2.4107,-2.4088,-2.4062,-2.4061,-2.4053,-2.4017,-2.3976,-2.3958,-2.3948,-2.3932,-2.393,-2.3969,-2.3943,-2.3806,-2.3785,-2.3764,-2.3754,-2.3969,-2.397,-2.4091,-2.4092,-2.4093]},{"header":{"parameterUnit":"m.s-1","parameterCategory":1,"la1":30.2991,"la2":30.254,"lo1":-89.0895,"lo2":-89.0444,"dy":0.0017,"dx":0.0017,"nx":28,"ny":28,"refTime":"2025-08-04T09:00:00:Z","depth":0,"parameterNumber":3,"parameterNumberName":"V-component_of_WINDS"},"data":[0,0,0,0,0,0,0,0,0,0,0,0,0,0,0,0,0,0,0,0,0,0,0,0,0,0,0,0,0,0,0,0,0,0,0,0,0,0,0,0,0,0,0,0,0,0,0,0,0,0,0,0,0,0,0,0,0,0,-2.2279,-2.2279,0,-2.228,-2.228,-2.228,-2.2244,-2.2243,-2.2242,-2.2242,-2.2242,-2.2243,-2.2244,0,0,0,0,0,0,0,0,0,0,0,0,0,-2.2246,-2.2247,-2.2279,-2.2279,-2.2279,-2.228,-2.228,-2.228,-2.2244,-2.2243,-2.2242,-2.2241,-2.2242,-2.2243,-2.2244,0,0,0,0,0,0,0,0,0,0,0,0,0,-2.2255,-2.2247,-2.2279,-2.2262,-2.226,-2.228,-2.228,-2.228,-2.2245,-2.2243,-2.2242,-2.2241,-2.2241,-2.2243,-2.2244,-2.2281,0,0,-2.2248,-2.2249,0,0,0,0,0,0,0,0,-2.2255,-2.2256,-2.2264,-2.2263,-2.2261,-2.2261,-2.2268,-2.228,-2.2245,-2.2251,-2.2241,-2.224,-2.2249,-2.225,-2.2253,-2.2281,-2.2281,-2.2248,-2.2249,-2.2249,-2.225,0,0,0,0,0,0,0,-2.2254,-2.2256,-2.228,-2.2264,-2.2263,-2.2253,-2.2253,-2.227,-2.2258,-2.225,-2.2247,-2.2248,-2.2248,-2.2252,-2.2253,-2.2281,-2.2248,-2.2249,-2.225,-2.2251,-2.2337,-2.2338,0,0,0,0,0,0,-2.2256,-2.2256,-2.228,-2.228,-2.2254,-2.2255,-2.2255,-2.2262,-2.2258,-2.2255,-2.2249,-2.2246,-2.225,-2.2251,-2.2253,-2.2294,-2.2249,-2.2251,-2.2251,-2.2335,-2.2337,-2.2339,0,0,0,0,0,0,-2.2255,-2.2258,-2.228,-2.2267,-2.2269,-2.2257,-2.2266,-2.2263,-2.2267,-2.2257,-2.2254,-2.2255,-2.2249,-2.2251,-2.2274,-2.2294,-2.2251,-2.2253,-2.2334,-2.2336,-2.2338,-2.2379,0,0,0,0,0,0,-2.2255,-2.2258,-2.2273,-2.2268,-2.227,-2.2301,-2.2267,-2.2264,-2.2269,-2.2265,-2.2262,-2.226,-2.2248,-2.2272,-2.2275,-2.2295,-2.2254,-2.2332,-2.2335,-2.2337,-2.2376,-2.2382,-2.2388,0,0,0,0,0,-2.2253,-2.2284,-2.2273,-2.2277,-2.2287,-2.2302,-2.2303,-2.2289,-2.2271,-2.2285,-2.2278,-2.226,-2.2291,-2.2274,-2.2278,-2.2299,-2.233,-2.2334,-2.2337,-2.2373,-2.2381,-2.2388,0,0,0,0,0,0,-2.2292,-2.2283,-2.2271,-2.2301,-2.2303,-2.2296,-2.2313,-2.2298,-2.2305,-2.2301,-2.2283,-2.2282,-2.2308,-2.2305,-2.2287,-2.2333,-2.2308,-2.2312,-2.2334,-2.2341,-2.2347,-2.2347,-2.2255,0,0,0,0,0,-2.2304,-2.2317,-2.2309,-2.2336,-2.2337,-2.2325,-2.2331,-2.232,-2.2321,-2.2321,-2.2316,-2.2318,-2.2327,-2.2334,-2.2343,-2.2375,-2.2374,-2.2391,-2.2397,-2.2402,-2.2406,-2.2422,-2.2429,-2.235,-2.235,-2.235,0,0,-2.2329,-2.2326,-2.2335,-2.2344,-2.2343,-2.2357,-2.2326,-2.2342,-2.2351,-2.2323,-2.2344,-2.2341,-2.2341,-2.2369,-2.2381,-2.2367,-2.2428,-2.2407,-2.2411,-2.2412,-2.2426,-2.2434,-2.244,-2.2352,-2.2352,-2.2351,0,0,-2.2381,-2.2381,-2.2403,-2.2403,-2.2403,-2.2394,-2.24,-2.2395,-2.2392,-2.2413,-2.2392,-2.2403,-2.242,-2.2421,-2.2424,-2.2475,-2.2458,-2.2478,-2.251,-2.2526,-2.2532,-2.2538,-2.2555,-2.2562,-2.2482,-2.2482,-2.2482,0,-2.2412,-2.2432,-2.2416,-2.2433,-2.2437,-2.2412,-2.2434,-2.2435,-2.2438,-2.2441,-2.2426,-2.2447,-2.2445,-2.2472,-2.2485,-2.2488,-2.2493,-2.2479,-2.2533,-2.2538,-2.2543,-2.2559,-2.2566,-2.2485,-2.2484,-2.2484,-2.2484,0,-2.2469,-2.2483,-2.2501,-2.2504,-2.251,-2.253,-2.2516,-2.2524,-2.2512,-2.2505,-2.2526,-2.2523,-2.253,-2.2536,-2.2525,-2.2561,-2.2553,-2.2536,-2.251,-2.2553,-2.2568,-2.2575,-2.2488,-2.2487,-2.2487,-2.2486,0,0,-2.2546,-2.2539,-2.2546,-2.2547,-2.2544,-2.2555,-2.2573,-2.2579,-2.2586,-2.2589,-2.2603,-2.2618,-2.2602,-2.2605,-2.2594,-2.2608,-2.2648,-2.2589,-2.2588,-2.2599,-2.2686,-2.2699,-2.2706,-2.2637,-2.2638,-2.2639,-2.2686,0,-2.2596,-2.2626,-2.2612,-2.2644,-2.2656,-2.2632,-2.2647,-2.2647,-2.2641,-2.265,-2.2643,-2.2654,-2.2633,-2.2634,-2.2647,-2.264,-2.2665,-2.2636,-2.2649,-2.265,-2.2649,-2.2715,-2.2728,-2.2773,-2.2692,-2.2693,-2.2694,0,-2.2658,-2.2663,-2.2696,-2.269,-2.2695,-2.2709,-2.2713,-2.2723,-2.2722,-2.2716,-2.272,-2.2705,-2.2721,-2.2696,-2.2718,-2.2699,-2.2703,-2.2701,-2.2702,-2.2702,-2.2674,-2.2716,-2.2787,-2.2793,-2.2703,-2.2702,-2.2702,0,-2.271,-2.2724,-2.2745,-2.2747,-2.2741,-2.2752,-2.275,-2.2748,-2.2752,-2.2757,-2.2759,-2.2765,-2.2769,-2.2774,-2.2761,-2.2743,-2.2784,-2.2758,-2.278,-2.278,-2.2789,-2.2789,-2.2861,-2.2793,-2.2793,-2.2793,-2.2793,0,-2.2766,-2.2787,-2.2768,-2.2781,-2.2804,-2.2787,-2.2809,-2.2805,-2.2803,-2.2815,-2.2795,-2.2806,-2.2788,-2.2797,-2.2787,-2.2807,-2.2809,-2.2804,-2.2801,-2.2806,-2.2806,-2.2808,-2.2804,-2.2795,-2.2794,-2.2794,-2.2794,0,-2.2827,-2.2816,-2.2837,-2.283,-2.2829,-2.2845,-2.2839,-2.285,-2.2843,-2.2857,-2.286,-2.2848,-2.2857,-2.2845,-2.2854,-2.2847,-2.2873,-2.2866,-2.2874,-2.2871,-2.2893,-2.2891,-2.2969,-2.2978,-2.2905,-2.2906,-2.2906,0,-2.2864,-2.2879,-2.2873,-2.288,-2.2879,-2.2889,-2.2893,-2.2878,-2.2883,-2.2883,-2.2894,-2.2903,-2.2908,-2.2925,-2.2917,-2.2923,-2.2915,-2.2942,-2.2916,-2.292,-2.2915,-2.2914,-2.2915,-2.2947,-2.2948,-2.2949,-2.2949,0,-2.293,-2.2923,-2.293,-2.2936,-2.2941,-2.2945,-2.2947,-2.2953,-2.2936,-2.2943,-2.2953,-2.2957,-2.2966,-2.2974,-2.2978,-2.2976,-2.296,-2.2958,-2.2963,-2.2967,-2.2971,-2.2968,-2.2887,-2.2956,-2.2955,-2.2955,-2.2954,-2.2954,-2.2979,-2.2991,-2.2989,-2.2997,-2.2997,-2.2999,-2.3009,-2.3002,-2.301,-2.3016,-2.3006,-2.3018,-2.3016,-2.302,-2.3019,-2.3028,-2.3017,-2.3025,-2.3026,-2.3028,-2.3031,-2.297,-2.3029,-2.3029,-2.3029,-2.3029,-2.3028,0,-2.3043,-2.304,-2.3048,-2.3051,-2.3058,-2.3042,-2.3043,-2.3049,-2.306,-2.306,-2.3065,-2.3076,-2.3084,-2.3076,-2.3082,-2.3091,-2.3084,-2.3093,-2.3092,-2.3091,-2.3042,-2.3036,-2.3099,-2.3099,-2.3099,-2.3099,-2.3099,-2.3098,-2.3077,-2.3096,-2.3089,-2.3108,-2.3105,-2.3116,-2.3118,-2.3119,-2.3119,-2.3132,-2.3138,-2.3133,-2.3129,-2.3135,-2.3141,-2.3138,-2.3141,-2.3153,-2.3148,-2.3102,-2.3095,-2.3088,-2.3083,-2.3154,-2.3154,-2.3196,-2.3197,-2.3197]}]]